This demonstration page uses our WeatherBlox Daily Observations layout. Learn more.

Left ArrowRight Arrow

Hourly Observations for January 10, 2018

Temp ( °F °C ) Dew Point ( °F °C ) Humidity (%) Winds ( mph kmh ) Pressure ( in mb ) Visibility ( mi km ) Precip ( " mm )
12:53 am 00:53 Clear 36 2.2 30 -1.1 79 79 S 9 15 29.66 1005 10 16 0.00 0.00
1:53 am 01:53 Clear 36 2.2 30 -1.1 79 79 S 7 11 29.64 1004 10 16 0.00 0.00
2:53 am 02:53 Clear 36 2.2 30 -1.1 79 79 S 10 17 29.61 1003 10 16 0.00 0.00
3:53 am 03:53 Clear 34 1.1 30 -1.1 85 85 S 9 15 29.60 1003 10 16 0.00 0.00
4:53 am 04:53 Clear 32 0 30 -1.1 92 92 S 8 13 29.60 1002 8 13 0.00 0.00
5:53 am 05:53 Clear with Mist and Fog 32 0 30 -1.1 92 92 S 9 15 29.58 1002 5 8 0.00 0.00
6:05 am 06:05 Partly Cloudy with Mist and Fog 32 0 30 -1.1 92 92 SSE 7 11 29.65 1004 4 6 0.00 0.00
6:14 am 06:14 Mostly Cloudy with Mist and Fog 32 0 30 -1 93 93 SSE 9 15 29.65 1004 4 6 0.00 0.00
6:21 am 06:21 Mostly Cloudy with Mist and Fog 32 0 31 -0.6 96 96 SSE 10 17 29.65 1004 2 2 0.00 0.00
6:31 am 06:31 Mostly Cloudy with Fog 32 0 32 0 100 100 SSE 10 17 29.62 1003 1 1 0.00 0.00
6:53 am 06:53 Mostly Cloudy with Fog 33 0.6 33 0.6 100 100 SSE 10 17 29.57 1001 0 0 0.00 0.00
7:53 am 07:53 Mostly Cloudy with Fog 34 1.1 34 1.1 100 100 SSE 10 17 29.55 1001 0 0 0.00 0.00
8:53 am 08:53 Mostly Cloudy with Fog 36 2.2 35 1.7 97 97 S 10 17 29.55 1001 0 0 0.00 0.00
9:53 am 09:53 Cloudy with Mist and Fog 37 2.8 36 2.2 96 96 S 8 13 29.54 1001 1 2 0.00 0.00
10:20 am 10:20 Cloudy with Mist and Fog 37 3 36 2 93 93 S 8 13 29.56 1001 3 4 0.00 0.00
10:40 am 10:40 Cloudy with Mist and Fog 37 3 36 2 93 93 S 10 17 29.56 1001 3 5 0.00 0.00
10:53 am 10:53 Cloudy with Mist and Fog 37 2.8 36 2.2 96 96 SSW 10 17 29.53 1000 3 5 0.00 0.00
11:23 am 11:23 Cloudy with Mist and Fog 37 2.8 36 2.2 96 96 S 7 11 29.53 1000 4 6 0.00 0.00
11:53 am 11:53 Cloudy with Mist and Fog 39 3.9 36 2.2 89 89 S 7 11 29.48 998 5 8 0.00 0.00
12:43 pm 12:43 Partly Cloudy 42 5.6 36 2.2 79 79 SSW 8 13 29.47 998 7 11 0.00 0.00
12:53 pm 12:53 Mostly Sunny 43 6.1 36 2.2 76 76 SSW 7 11 29.44 997 8 13 0.00 0.00
1:53 pm 13:53 Sunny 47 8.3 36 2.2 66 66 S 5 7 29.41 996 10 16 0.00 0.00
2:53 pm 14:53 Sunny 50 10 35 1.7 57 57 S 7 11 29.39 995 10 16 0.00 0.00
3:53 pm 15:53 Sunny 51 10.6 34 1.1 52 52 VRB 6 9 29.41 996 10 16 0.00 0.00
4:53 pm 16:53 Sunny 47 8.3 36 2.2 66 66 W 3 6 29.42 996 10 16 0.00 0.00
5:53 pm 17:53 Clear 45 7.2 34 1.1 66 66 Calm 29.42 996 10 16 0.00 0.00
6:53 pm 18:53 Clear 40 4.4 35 1.7 83 83 N 10 17 29.48 998 9 14 0.00 0.00
7:53 pm 19:53 Clear 37 2.8 33 0.6 86 86 N 7 11 29.53 1000 7 11 0.00 0.00
8:53 pm 20:53 Clear 37 2.8 32 0 82 82 N 16 26 29.57 1001 9 14 0.00 0.00
9:35 pm 21:35 Mostly Cloudy 37 2.8 33 0.6 86 86 N 20 31 29.62 1003 10 16 0.00 0.00
9:53 pm 21:53 Cloudy 37 2.8 33 0.6 86 86 N 17 28 29.62 1003 10 16 0.00 0.00
10:21 pm 22:21 Cloudy with Mist and Fog 32 0 29 -1.7 88 88 N 28 44 29.71 1006 6 10 0.00 0.00
10:53 pm 22:53 Cloudy 28 -2.2 25 -3.9 88 88 N 29 46 29.71 1006 8 13 0.00 0.00
11:33 pm 23:33 Cloudy 25 -3.9 19 -7.2 78 78 N 26 43 29.80 1009 10 16 0.00 0.00
11:53 pm 23:53 Cloudy 24 -4.4 17 -8.3 75 75 N 28 44 29.75 1007 10 16 0.00 0.00

Powered by AerisWeather